Weather History for Fullerton, CA

Change the Weather History Date:

Wednesday, September 12, 2012

  Actual Average Record
Temperature  
Mean Temperature 81 °F 75 °F  
Max Temperature 89 °F 85 °F 97 °F (2000)
Min Temperature 72 °F 64 °F 57 °F (2005)
Degree Days  
Heating Degree Days 0 0  
Month to date heating degree days 0 0  
Since 1 July heating degree days 16 0  
Cooling Degree Days 16 10  
Month to date cooling degree days 194 70  
Year to date cooling degree days 1461 933  
Growing Degree Days 30 (Base 50)    
Moisture  
Dew Point 65 °F    
Average Humidity 63    
Maximum Humidity 79    
Minimum Humidity 46    
Precipitation  
Precipitation 0.00 in 0.01 in 0.00 in (2014)
Month to date precipitation T 0.02  
Year to date precipitation 3.54 9.76  
Since 1 July precipitation 0.01 0.11  
Snow  
Snow 0.00 in - - ()
Month to date snowfall 0.0  
Year to date snowfall 0.0  
Since 1 July snowfall 0.0  
Snow Depth 0.00 in    
Sea Level Pressure  
Sea Level Pressure 29.97 in    
Wind  
Wind Speed 2 mph (West)    
Max Wind Speed 10 mph    
Max Gust Speed 15 mph    
Visibility 9 miles    
Events      
T = Trace of Precipitation, MM = Missing Value Source: NWS Daily Summary

Daily Weather History Graph

Daily Weather History Graph

Search for Another Location

Airport:

Trip Planner

Search our weather history database for the weather conditions in past years. The results will help you decide how hot, cold, wet, or windy it might be!

Date:

Astronomy

Sep. 12, 2012 Rise Set
Actual Time 6:33 AM PDT 7:01 PM PDT
Civil Twilight 6:08 AM PDT 7:26 PM PDT
Nautical Twilight 5:39 AM PDT 7:56 PM PDT
Astronomical Twilight 5:09 AM PDT 8:26 PM PDT
Moon 3:03 AM PDT (9/12) 4:46 PM PDT (9/12)
Length of Visible Light 13h 18m
Length of Day
12h 28m
Waning Crescent, 13% of the Moon is Illuminated
Sep 12
Waning Crescent
Sep 15
New
Sep 22
First Quarter
Sep 29
Full
Oct 8
Last Quarter

Hourly Weather History & Observations

Time (PDT) Temp. Heat Index Dew Point Humidity Pressure Visibility Wind Dir Wind Speed Gust Speed Precip Events Conditions
12:53 AM 72.0 °F - 64.9 °F 78% 29.97 in 10.0 mi Calm Calm - N/A   Overcast
1:39 AM 73.4 °F - 64.4 °F 73% 29.97 in 10.0 mi Calm Calm - N/A   Overcast
1:53 AM 73.0 °F - 64.9 °F 76% 29.97 in 10.0 mi Calm Calm - N/A   Overcast
2:53 AM 73.0 °F - 64.9 °F 76% 29.96 in 10.0 mi Calm Calm - N/A   Overcast
3:53 AM 73.9 °F - 64.9 °F 73% 29.96 in 10.0 mi Calm Calm - N/A   Overcast
4:53 AM 73.9 °F - 64.9 °F 73% 29.96 in 10.0 mi Calm Calm - N/A   Overcast
5:20 AM 73.4 °F - 64.4 °F 73% 29.96 in 10.0 mi Calm Calm - N/A   Overcast
5:53 AM 73.9 °F - 64.9 °F 73% 29.97 in 10.0 mi Variable 3.5 mph - N/A   Overcast
6:53 AM 73.9 °F - 64.0 °F 71% 29.98 in 10.0 mi Calm Calm - N/A   Overcast
7:53 AM 73.9 °F - 64.9 °F 73% 30.00 in 7.0 mi West 3.5 mph - N/A   Overcast
8:53 AM 75.0 °F - 64.9 °F 71% 30.01 in 7.0 mi West 3.5 mph - N/A   Overcast
9:53 AM 77.0 °F - 64.9 °F 66% 30.01 in 7.0 mi Calm Calm - N/A   Overcast
10:53 AM 79.0 °F - 64.9 °F 62% 30.01 in 7.0 mi Calm Calm - N/A   Overcast
11:24 AM 82.4 °F 83.9 °F 64.4 °F 54% 30.00 in 7.0 mi Variable 4.6 mph - N/A   Partly Cloudy
11:53 AM 82.0 °F 83.8 °F 64.9 °F 56% 29.98 in 8.0 mi Variable 4.6 mph - N/A   Clear
12:53 PM 86.0 °F 87.6 °F 64.9 °F 49% 29.96 in 8.0 mi Variable 4.6 mph - N/A   Clear
1:53 PM 88.0 °F 89.6 °F 64.9 °F 46% 29.94 in 10.0 mi Variable 4.6 mph - N/A   Clear
2:53 PM 89.1 °F 91.3 °F 66.0 °F 46% 29.92 in 10.0 mi Calm Calm - N/A   Clear
3:53 PM 87.1 °F 88.9 °F 64.9 °F 48% 29.91 in 10.0 mi Variable 5.8 mph - N/A   Clear
4:53 PM 84.0 °F 85.8 °F 64.9 °F 53% 29.91 in 10.0 mi Variable 5.8 mph - N/A   Clear
6:53 PM 75.9 °F - 64.0 °F 67% 29.93 in 10.0 mi WNW 6.9 mph - N/A   Clear
7:53 PM 73.9 °F - 64.9 °F 73% 29.95 in 10.0 mi West 3.5 mph - N/A   Clear
8:53 PM 73.9 °F - 64.9 °F 73% 29.98 in 10.0 mi WNW 3.5 mph - N/A   Clear
9:53 PM 73.0 °F - 64.9 °F 76% 30.00 in 10.0 mi West 3.5 mph - N/A   Partly Cloudy
10:53 PM 72.0 °F - 64.9 °F 78% 29.99 in 10.0 mi Calm Calm - N/A   Clear
11:18 PM 73.4 °F - 64.4 °F 73% 30.00 in 10.0 mi Calm Calm - N/A   Mostly Cloudy
11:50 PM 73.4 °F - 64.4 °F 73% 30.00 in 10.0 mi Calm Calm - N/A   Partly Cloudy
11:53 PM 73.0 °F - 64.9 °F 76% 30.00 in 10.0 mi Calm Calm - N/A   Partly Cloudy